This is the latest recevied weather packets stored in our database for station/object KE0YJJ-14. If no packets are shown the sender has not sent any weather packets the latest 10 day(s).
| Time | Temp. | Humidity | Pressure | Rain* | Wind** | Luminosity | Snow |
|---|---|---|---|---|---|---|---|
| 1778073193 | 3.33° C | 56% | - | 0 mm | - | - | - |
| 1778072890 | 3.33° C | 53% | - | 0 mm | - | - | - |
| 1778072586 | 3.33° C | 49% | - | 0 mm | - | - | - |
| 1778072285 | 3.33° C | 46% | - | 0 mm | - | - | - |
| 1778071982 | 3.33° C | 47% | - | 0 mm | - | - | - |
| 1778071681 | 3.33° C | 47% | - | 0 mm | - | - | - |
| 1778071377 | 2.78° C | 52% | - | 0 mm | - | - | - |
| 1778071075 | 2.22° C | 52% | - | 0 mm | - | - | - |
| 1778070774 | 2.22° C | 52% | - | 0 mm | - | - | - |
| 1778070470 | 1.67° C | 54% | - | 0 mm | - | - | - |
| 1778070167 | 1.67° C | 57% | - | 0 mm | - | - | - |
| 1778069865 | 1.11° C | 57% | - | 0 mm | - | - | - |
| 1778069562 | 1.11° C | 59% | - | 0 mm | - | - | - |
| 1778069259 | 0.56° C | 60% | - | 0 mm | - | - | - |
| 1778068957 | 0.56° C | 63% | - | 0 mm | - | - | - |
| 1778068654 | 0.56° C | 62% | - | 0 mm | - | - | - |
| 1778068352 | 0.56° C | 63% | - | 0 mm | - | - | - |
| 1778068050 | 0° C | 64% | - | 0 mm | - | - | - |
| 1778067747 | 0° C | 66% | - | 0 mm | - | - | - |
| 1778067445 | -0.56° C | 68% | - | 0 mm | - | - | - |
| 1778067143 | -0.56° C | 71% | - | 0 mm | - | - | - |
| 1778066839 | -0.56° C | 74% | - | 0 mm | - | - | - |
| 1778066537 | -0.56° C | 73% | - | 0 mm | - | - | - |
| 1778066234 | -0.56° C | 73% | - | 0 mm | - | - | - |
| 1778065932 | -0.56° C | 75% | - | 0 mm | - | - | - |
* Rain latest hour (hover to see other rain measurements)
** Current wind speed in m/s (hover to see current wind gust speed)